Flag for Switzerland Weather past 2 weeks in Geneva, Geneva, Switzerland

Now
40 °F

Light rain. Overcast.


Feels Like: 36 °F
Forecast: 41 / 49 °F
Wind: 5 mph from West

Location: Geneve-Cointrin

Current Time: Mar 1, 2015 at 8:04:10 AM

Latest Report: Mar 1, 2015 at 7:00 AM


Visibility: 13 mi

Pressure: 30.06 "Hg

Humidity: 83%

Dew point: 35 °F

Location of GenevaLocation

Historic Weather in Geneva — Graph

°F

Geneva temperature yesterday

Maximum temperature yesterday: 43 °F (at 4:00 PM)
Minimum temperature yesterday: 31 °F (at 11:00 PM)
Average temperature yesterday: 38 °F

Past Weeks' High & Low Weather Summary

 TemperatureHumidityPressure
High53 °F (Feb 20, 3:00 PM)95% (Feb 15, 12:00 AM)30.69 "Hg (Feb 15, 12:00 AM)
Low27 °F (Feb 20, 5:00 AM)23% (Feb 20, 3:00 PM)29.62 "Hg (Feb 21, 10:00 AM)
Average38 °F78%30.08 "Hg
* Reported Feb 14 6:00 AM — Mar 1 6:00 AM, Geneva, Weather by CustomWeather, © 2015

Note: Actual official high and low records may vary slightly from our data, if they occured in-between our weather recording intervals... More about our weather records

Advertising

Geneva weather history for previous 24 hours

 ConditionsComfort  
Time TempWeatherWind HumidityBarometerVisibility
6:00 AM
Sun, Mar 1
38 °FChilly.6 mph85%30.06 "HgN/A
5:00 AM38 °FChilly.9 mph83%30.06 "HgN/A
3:00 AM37 °FChilly.6 mph78%30.07 "HgN/A
2:00 AM36 °FChilly.3 mph76%30.08 "HgN/A
1:00 AM33 °FPassing clouds.1 mph87%30.11 "Hg12 mi
12:00 AM32 °FChilly.2 mph87%30.14 "HgN/A
11:00 PM
Sat, Feb 28
31 °FChilly.2 mph86%30.14 "HgN/A
10:00 PM32 °FPassing clouds.2 mph81%30.16 "Hg25 mi
9:00 PM35 °FChilly.2 mph79%30.16 "HgN/A
8:00 PM36 °FChilly.1 mph75%30.15 "HgN/A
7:00 PM38 °FPassing clouds.2 mph66%30.13 "Hg31 mi
6:00 PM41 °FQuite cool.3 mph58%30.11 "HgN/A
5:00 PM43 °FQuite cool.5 mph54%30.11 "HgN/A
4:00 PM43 °FOvercast.6 mph54%30.12 "Hg31 mi
3:00 PM43 °FQuite cool.8 mph54%30.13 "HgN/A
2:00 PM42 °FQuite cool.9 mph56%30.14 "HgN/A
1:00 PM43 °FScattered clouds.8 mph63%30.16 "Hg43 mi
12:00 PM43 °FQuite cool.10 mph65%30.17 "HgN/A
11:00 AM40 °FChilly.10 mph67%30.19 "HgN/A
10:00 AM39 °FOvercast.13 mph70%30.19 "Hg43 mi
9:00 AM39 °FChilly.7 mph71%30.19 "HgN/A
8:00 AM36 °FChilly.2 mph76%30.19 "HgN/A
Weather by CustomWeather, © 2015

See weather overviewHow to use our weather pages